Regional Weather Roundup
Issued by NWS

Home | Current Version | Previous Version | Text Only | Print | Product List | Glossary On
Versions: 1 2 3 4 5 6 7 8 9 10 11 12 13 14 15 16 17 18 19 20 21 22 23 24 25 26 27 28 29 30 31 32 33 34 35 36 37 38 39 40 41 42 43 44 45 46 47 48 49 50
000
ASUS43 KLSX 201307
RWRMO

WEATHER SUMMARY FOR MISSOURI
NATIONAL WEATHER SERVICE SPRINGFIELD MO
800 AM CDT WED SEP 20 2017

NOTE: "FAIR" INDICATES FEW OR NO CLOUDS BELOW 12,000 FEET WITH NO
       SIGNIFICANT WEATHER AND/OR OBSTRUCTIONS TO VISIBILITY.
       CURRENT SKY AND/OR WEATHER CONDITIONS ARE NOT AVAILABLE FOR
       CHILLICOTHE AND FARMINGTON.

MOZ001>031-035>038-043-044-053-054-201400-
...NORTHERN AND WESTERN MISSOURI...

CITY           SKY/WX    TMP DP  RH WIND       PRES   REMARKS
KANSAS CTY INT PTCLDY    73  71  93 S10       29.79R
KANSAS C DTWN  CLEAR     77  72  84 S8        29.78R
LEE`S SUMMIT   MOSUNNY   73  71  93 SW8       29.82R
ST JOSEPH      CLEAR     74  71  91 S8        29.75R
CHILLICOTHE      N/A     73  70  90 S7        29.80R
KIRKSVILLE     SUNNY     74  68  81 S8        29.84R

$$
MOZ066>068-077>081-088>096-101>105-201400-
...SOUTHWEST MISSOURI...

CITY           SKY/WX    TMP DP  RH WIND       PRES   REMARKS
SPRINGFIELD    SUNNY     72  71  97 S12       29.89R
JOPLIN         SUNNY     76  73  91 S15       29.85R
BRANSON        MOSUNNY   70  70 100 CALM      29.93R

$$
MOZ032>034-039>042-045>050-055>058-069>072-201400-
...CENTRAL MISSOURI...

CITY           SKY/WX    TMP DP  RH WIND       PRES   REMARKS
COLUMBIA       SUNNY     72  70  93 S7        29.87R
JEFFERSON CITY SUNNY     72  68  87 E5        29.87R
ROLLA          SUNNY     74  70  87 S12       29.92R
SEDALIA        SUNNY     76  72  87 S13       29.85R
WHITEMAN AFB   MOSUNNY   75  68  78 S16       29.81R
WARRENSBURG    SUNNY     72  68  88 S10G17    29.81R
OSAGE BEACH    SUNNY     72  69  90 S7        29.89R

$$
MOZ051-052-059>065-201400-
...EAST CENTRAL MISSOURI...

CITY           SKY/WX    TMP DP  RH WIND       PRES   REMARKS
ST LOUIS INTL  MOSUNNY   75  69  81 S8        29.91R
SPIRIT OF STL  MOSUNNY   72  70  93 E3        29.89R
ST CHARLES     SUNNY     71  70  96 CALM      29.89R FOG

$$
MOZ072>076-082>087-097>100-106>115-201400-
...SOUTH CENTRAL AND SOUTHEAST MISSOURI...

CITY           SKY/WX    TMP DP  RH WIND       PRES   REMARKS
CAPE GIRARDEAU SUNNY     74  70  87 CALM      29.96R
FARMINGTON     SUNNY     71  69  93 SE7       29.95R
POPLAR BLUFF   SUNNY     72  71  97 S5        29.94S FOG
WEST PLAINS    SUNNY     74  71  91 S6        29.96R

$$



USA.gov is the U.S. government's official web portal to all federal, state and local government web resources and services.